Location: Arricau-Bordes
(43.5000°N, 0.1333°W)
Time: 19:11:29
(UTC+00:00)

Daily predictions for brighter satellites

Satellite Brightness Start Highest point End
(mag) Time Altitude Azimuth Time Altitude Azimuth Time Altitude Azimuth
Cosmos 1697 Rocket 2.8 17:34:56 10° S 17:40:26 55° ESE 17:45:58 10° NNE
Cosmos 1125 Rocket 4.1 17:35:56 10° SSE 17:40:43 36° ESE 17:45:30 10° NE
SME Rocket 4.2 17:39:21 10° N 17:43:12 53° WNW 17:48:12 10° SSW
Cosmos 1908 4.3 17:41:30 10° SE 17:44:38 23° E 17:47:45 10° NE
Cosmos 1607 4.5 17:41:26 10° NNW 17:47:20 39° NE 17:53:06 10° ESE
Cosmos 1356 3.5 17:45:24 10° N 17:48:43 51° ENE 17:52:01 10° SSE
Meteor 1-24 Rocket 4.2 17:44:00 10° NNW 17:49:41 71° W 17:55:31 10° S
Cosmos 2227 Rocket 2.2 17:44:39 10° NNW 17:50:22 88° ENE 17:56:02 10° SSE
Cosmos 494 Rocket 4.2 17:48:20 10° N 17:53:26 50° ENE 17:58:26 10° SE
Landsat 5 3.8 17:50:14 10° NNE 17:54:26 49° E 17:58:44 10° S
MOS 1-B Rocket 4.4 17:49:50 10° NNE 17:56:34 48° E 18:02:22 10° S
CZ-2C R/B 3.0 17:51:22 10° NNE 17:56:49 48° E 18:02:09 10° S
Timation 2 Rocket 4.2 17:50:18 10° NNW 17:57:14 75° ENE 18:03:57 10° SSE
SKYMED 2 3.7 17:53:08 10° NNE 17:57:26 56° E 18:01:41 10° S
Cosmos 1726 3.6 17:54:02 10° SSW 17:57:28 40° WNW 18:00:55 10° N
Aureole 2 4.3 17:56:16 10° NNW 17:59:14 77° WSW 18:02:22 10° SSE
Cosmos 1470 3.7 17:55:33 10° SSW 17:59:26 54° W 18:03:21 10° N
Okean O Rocket 1.6 17:57:19 10° SSE 18:01:35 61° ENE 18:05:53 10° N
Cosmos 2084 Rocket 4.2 17:57:59 10° WSW 18:01:44 46° NW 18:05:30 10° NNE
USA 215 4.5 17:56:41 10° NE 18:02:23 33° NNW 18:08:05 10° WNW
Cosmos 1758 3.4 18:02:18 10° S 18:06:17 83° W 18:10:17 10° N
CZ-4 R/B 2.2 18:04:29 10° SE 18:07:54 29° ENE 18:11:23 10° N
YAOGAN 1 3.3 18:04:51 10° SE 18:08:40 31° ENE 18:12:30 10° N
Cosmos 1703 3.9 18:05:11 10° N 18:08:46 32° ENE 18:12:18 10° SE
SL-16 R/B 3.8 18:06:58 10° ESE 18:08:50 12° E 18:08:50 12° E
Okean-O 3.9 18:07:41 12° ESE 18:10:29 20° ENE 18:13:44 10° NNE
Cosmos 1455 Rocket 3.7 18:08:55 10° SSE 18:12:52 34° E 18:16:52 10° NNE
Cosmos 2082 3.6 18:09:55 10° NNW 18:15:33 71° ENE 18:21:08 10° SSE
Spot 2 4.1 18:12:56 10° SSE 18:16:51 50° ENE 18:20:54 10° N
Cosmos 1953 2.5 18:13:03 10° S 18:16:57 50° E 18:20:54 10° NNE
Cosmos 2150 Rocket 4.1 18:14:45 10° SSW 18:20:12 89° WNW 18:25:39 10° NNE
H-2A R/B 2.8 18:17:03 10° NE 18:20:36 28° E 18:24:11 10° SSE
Cosmos 1727 Rocket 4.1 18:15:07 10° N 18:21:22 84° W 18:27:32 10° S
Meteor 1-21 Rocket 4.3 18:18:33 10° N 18:24:22 67° ENE 18:30:14 10° SSE
Cosmos 1544 Rocket 4.4 18:22:23 10° SSE 18:26:09 28° E 18:29:56 10° NNE
H-2A R/B 2.8 18:25:29 10° S 18:30:41 58° W 18:36:04 10° NNW
ATLAS 3B R/B 3.2 18:27:03 10° SW 18:33:29 59° NW 18:40:15 10° NNE
Cosmos 1300 3.8 18:31:01 10° SSE 18:38:01 - NNE 18:33:12 24° ESE
Cosmos 405 Rocket 2.8 18:34:33 10° N 18:38:26 56° ENE 18:42:21 10° SSE
CZ-4B R/B 4.2 18:34:23 10° S 18:39:50 50° W 18:45:21 10° NNW
ATLAS 5 CENTAUR R/B 1.3 18:39:53 10° SSW 18:43:39 57° ESE 18:45:39 27° NE
COSMO-SKYMED 1 3.8 18:41:21 10° N 18:45:29 44° WNW 18:49:36 10° SW
NOSS 3-1 (C) 4.2 18:44:40 10° SSE 18:47:41 23° SE 18:47:41 23° SE
Cosmos 2369 4.2 18:45:54 10° SW 18:51:29 61° WNW 18:57:08 10° NNE
Feng Yun 1-1 Rocket 4.4 18:46:09 10° S 18:51:37 77° WSW 18:57:17 10° NNW
HJ-1C 3.1 18:51:07 35° SSE 18:52:21 78° ENE 18:55:36 10° N
SL-8 R/B 4.1 18:48:04 10° SW 18:52:37 45° SE 18:53:45 38° ESE
IRS-1C Rocket 4.0 18:50:40 10° SSE 18:55:52 70° ENE 19:01:08 10° N
Cosmos 1605 Rocket 4.2 18:50:44 10° SSE 18:56:34 45° E 19:02:32 10° NNE
H-2A R/B 3.0 18:52:19 10° S 18:56:42 62° WSW 19:00:59 10° NNW
Cosmos 1892 Rocket 4.0 18:55:09 10° NNW 18:59:35 63° W 19:03:57 10° S
SL-08 RB Rocket 4.0 18:55:11 10° S 18:59:39 66° W 19:04:13 10° NNW
Cosmos 1535 Rocket 4.4 18:55:06 10° S 19:01:15 69° E 19:07:31 10° NNE
Cosmos 1980 Rocket 2.7 19:00:03 10° SW 19:05:38 62° WNW 19:11:17 10° NNE
X-37B 1.1 19:05:26 10° W 19:08:08 60° W 19:08:08 60° W
Cosmos 489 Rocket 4.3 19:03:03 10° NNW 19:09:17 82° ENE 19:13:45 20° SSE
Cosmos 2263 Rocket 2.0 19:04:49 10° NNW 19:10:25 77° ENE 19:12:46 36° SE
CSL-04 Debris 4.0 19:08:41 28° SSE 19:11:34 70° ENE 19:16:57 10° N
Cosmos 1269 Rocket 3.9 19:07:05 10° NNW 19:12:25 79° ENE 19:14:31 38° SSE
CZ-2C R/B 3.4 19:14:58 10° SSW 19:15:35 12° SSW 19:15:35 12° SSW
Cosmos 724 4.1 19:19:39 10° NNW 19:25:39 80° ENE 19:26:53 57° SE
Cosmos 1626 Rocket 3.7 19:24:35 10° N 19:28:11 61° N 19:28:11 61° N
Cosmos 371 Rocket 3.3 19:24:46 10° SSW 19:28:54 64° S 19:28:54 64° S
CSL-04 Rocket 3.6 19:30:11 39° SSE 19:32:19 87° WSW 19:37:54 10° NNW
Iridium 4 Rocket 4.3 19:28:30 10° NNW 19:32:39 42° W 19:37:05 10° SSW
MetOp-A 4.3 19:31:02 26° S 19:34:06 73° WSW 19:39:28 10° NNW
Gbstr 26 Del rocket 4.4 19:34:35 10° WNW 19:42:07 88° NNE 19:43:59 58° ESE
CZ-4 R/B 3.7 19:39:45 10° SSW 19:42:53 23° W 19:46:05 10° NW
Cosmos 1844 Rocket 4.0 19:41:17 10° N 19:44:20 26° NNE 19:44:20 26° NNE
Okean-O 3.7 19:45:17 32° SW 19:46:40 42° W 19:50:54 10° NNW
SL-16 R/B 2.7 19:46:47 10° SSW 19:50:51 49° SSW 19:50:51 49° SSW
H-2A R/B 4.1 19:53:06 10° NNW 19:56:29 25° WNW 19:59:51 10° WSW
Cosmos 2322 Rocket 4.4 20:04:50 10° SSW 20:05:21 13° SSW 20:05:21 13° SSW
Cosmos 2344 4.2 20:04:20 10° NW 20:13:37 77° NE 20:15:56 62° ESE
Lacrosse 4 Rocket 4.1 20:11:40 10° NNW 20:12:22 14° NNW 20:12:22 14° NNW
ATLAS 5 CENTAUR R/B 4.2 20:25:41 10° W 20:27:13 16° WNW 20:27:13 16° WNW
